DW2150 Weather Reports


time (UTC)temp
F
wind
direction
speed
knots
gust
knots
rain 1hr
in
rain 24hr
in
rain mn
in
humidity
%
barometer
mb
20260905025623 82 81 0.0 0.0 0.00 0.12 0.12 91 1013.9
20260905025101 82 81 0.0 0.0 0.00 0.12 0.12 91 1013.9
20260905024557 82 81 0.0 0.0 0.00 0.12 0.12 91 1013.5
20260905024035 82 81 0.0 0.0 0.00 0.12 0.12 91 1013.5
20260905023516 82 81 0.0 0.0 0.00 0.12 0.12 90 1013.5
20260905022839 82 81 0.0 0.0 0.00 0.12 0.12 90 1013.5
20260905022336 82 81 0.0 0.0 0.00 0.12 0.12 90 1013.5
20260905021800 82 81 0.0 0.0 0.00 0.12 0.12 90 1013.5
20260905021226 82 81 0.0 0.0 0.00 0.12 0.12 90 1013.5
20260905020722 82 81 0.0 0.0 0.00 0.12 0.12 89 1013.2
20260905020219 82 81 0.0 0.0 0.00 0.12 0.12 89 1013.2
20260905015716 82 81 0.0 0.0 0.00 0.12 0.12 89 1013.2
20260905015214 83 81 0.0 0.0 0.00 0.12 0.12 89 1013.2
20260905014711 83 81 0.0 0.0 0.00 0.12 0.12 89 1013.2
20260905014207 83 81 0.0 0.0 0.00 0.12 0.12 89 1013.2
20260905013704 83 81 0.0 0.0 0.00 0.12 0.12 89 1013.2
20260905013201 83 81 0.0 0.0 0.00 0.12 0.12 89 1013.2
20260905012659 83 81 0.0 0.0 0.00 0.12 0.12 88 1013.2
20260905012156 83 81 0.0 0.0 0.00 0.12 0.12 88 1013.2
20260905011652 83 81 0.0 0.0 0.00 0.12 0.12 88 1012.9
20260905011149 84 81 0.0 0.0 0.00 0.12 0.12 88 1012.9
20260905010646 84 81 0.0 0.0 0.00 0.12 0.12 88 1012.9
20260905010124 84 81 0.0 0.9 0.00 0.12 0.12 88 1012.9
20260905005621 84 81 0.0 0.9 0.00 0.12 0.12 88 1012.9
20260905005100 84 81 0.0 0.9 0.00 0.12 0.12 87 1012.9
20260905004557 85 81 0.9 0.9 0.00 0.12 0.12 87 1012.5
20260905004054 85 81 0.0 0.9 0.00 0.12 0.12 87 1012.5
20260905003550 85 81 0.0 0.9 0.00 0.12 0.12 87 1012.5
20260905003028 85 81 0.9 1.7 0.00 0.12 0.12 87 1012.5
20260905002454 85 81 0.0 1.7 0.00 0.12 0.12 87 1012.5
20260905001950 86 81 0.0 1.7 0.00 0.12 0.12 87 1012.5
20260905001447 86 81 0.9 4.3 0.00 0.12 0.12 86 1012.5
20260905000930 86 81 0.9 4.3 0.00 0.12 0.12 86 1012.5
20260905000355 87 81 0.9 4.3 0.00 0.12 0.12 85 1012.5
20260904235834 87 254 0.9 1.7 0.00 0.12 0.12 85 1012.5
20260904235331 87 327 0.9 1.7 0.00 0.12 0.12 84 1012.5
20260904234757 87 237 0.9 1.7 0.00 0.12 0.12 85 1012.5
20260904234235 87 237 0.9 2.6 0.00 0.12 0.12 85 1012.5
20260904233732 88 233 0.9 2.6 0.00 0.12 0.12 85 1012.5
20260904233210 88 233 0.9 2.6 0.00 0.12 0.12 85 1012.5
20260904232707 88 236 0.9 2.6 0.00 0.12 0.12 84 1012.5
20260904232204 88 5 0.9 2.6 0.00 0.12 0.12 84 1012.5
20260904231701 88 6 0.9 2.6 0.00 0.12 0.12 84 1012.5
20260904231158 89 10 1.7 2.6 0.00 0.12 0.12 83 1012.5
20260904230032 89 182 0.9 1.7 0.00 0.12 0.12 83 1012.5
20260904225520 89 171 0.9 1.7 0.00 0.12 0.12 83 1012.5
20260904225016 89 191 0.9 1.7 0.00 0.12 0.12 82 1012.5
20260904224500 89 340 0.0 1.7 0.00 0.12 0.12 83 1012.5
20260904223945 89 356 0.9 3.5 0.00 0.12 0.12 83 1012.5
20260904223442 89 36 0.9 3.5 0.00 0.12 0.12 81 1012.5
20260904222907 89 12 0.9 3.5 0.00 0.12 0.12 82 1012.5
20260904222404 89 335 1.7 2.6 0.00 0.12 0.12 83 1012.5
20260904221901 88 331 0.9 1.7 0.00 0.12 0.12 83 1012.5
20260904221358 88 331 0.9 1.7 0.00 0.12 0.12 83 1012.2
20260904220854 88 331 0.9 1.7 0.00 0.12 0.12 82 1012.2
20260904220319 88 294 0.9 2.6 0.00 0.12 0.12 83 1012.5
20260904215757 89 302 0.0 3.5 0.00 0.12 0.12 84 1012.5
20260904215254 89 302 0.9 4.3 0.00 0.12 0.12 83 1012.5
20260904214751 89 59 0.9 4.3 0.00 0.12 0.12 82 1012.5
20260904214247 89 281 1.7 5.2 0.00 0.12 0.12 82 1012.5
20260904213745 89 276 0.9 5.2 0.00 0.12 0.12 84 1012.5
20260904213241 88 67 2.6 5.2 0.00 0.12 0.12 84 1012.9
20260904212738 88 46 1.7 4.3 0.00 0.12 0.12 85 1012.9
20260904212203 87 54 1.7 3.5 0.00 0.12 0.12 85 1012.9
20260904211558 86 35 1.7 3.5 0.00 0.12 0.12 85 1012.9
20260904211055 86 20 0.9 1.7 0.00 0.12 0.12 88 1012.9
20260904210536 85 29 0.9 2.6 0.00 0.12 0.12 86 1012.9
20260904210014 86 46 0.0 2.6 0.00 0.12 0.12 87 1013.2
20260904205511 86 53 0.0 2.6 0.00 0.12 0.12 88 1013.2
20260904205008 86 52 1.7 3.5 0.00 0.12 0.12 86 1013.2
20260904204434 86 65 0.9 3.5 0.00 0.12 0.12 87 1013.2
20260904203931 85 75 0.9 3.5 0.00 0.12 0.12 88 1013.2
20260904203408 84 28 1.7 3.5 0.00 0.12 0.12 89 1013.2
20260904202904 84 37 0.9 2.6 0.00 0.12 0.12 91 1013.2
20260904202401 84 108 0.9 2.6 0.00 0.12 0.12 91 1013.5
20260904201858 83 108 0.0 2.6 0.00 0.12 0.12 91 1013.5
20260904201353 82 108 0.9 2.6 0.00 0.13 0.12 89 1013.5
20260904200818 82 227 0.9 1.7 0.01 0.13 0.12 90 1013.9
20260904200256 82 226 0.0 1.7 0.03 0.15 0.12 90 1013.5
20260904195737 82 226 0.0 2.6 0.05 0.19 0.12 89 1013.5
20260904195234 83 226 0.0 2.6 0.08 0.22 0.12 88 1013.5
20260904194700 83 226 0.0 2.6 0.12 0.25 0.12 88 1013.9
20260904194139 83 226 0.9 5.2 0.12 0.26 0.12 91 1013.9
20260904193636 83 225 0.0 5.2 0.12 0.28 0.12 91 1013.9
20260904193102 82 225 0.0 9.6 0.12 0.28 0.12 90 1013.9
20260904192559 81 260 2.6 9.6 0.12 0.28 0.12 90 1014.2
20260904192056 81 264 1.7 9.6 0.12 0.28 0.12 90 1014.2
20260904191521 81 256 4.3 9.6 0.12 0.28 0.12 88 1014.2
20260904191018 82 155 0.9 2.6 0.12 0.28 0.12 89 1014.6
20260904190438 84 119 0.9 1.7 0.10 0.26 0.10 87 1014.6
20260904185935 86 82 0.9 1.7 0.07 0.23 0.07 85 1014.6
20260904185432 88 82 0.9 3.5 0.05 0.21 0.05 84 1014.6
20260904184858 90 82 0.9 4.3 0.01 0.17 0.01 80 1014.6
20260904184323 91 81 0.9 4.3 0.00 0.16 0.00 77 1014.6
20260904183820 92 81 0.0 4.3 0.00 0.16 0.00 75 1014.6
20260904183316 93 62 1.7 4.3 0.00 0.16 0.00 74 1014.6
20260904182735 93 346 0.9 4.3 0.00 0.16 0.00 74 1014.6
20260904182231 93 22 1.7 4.3 0.00 0.16 0.00 72 1014.6
20260904181725 93 6 0.9 4.3 0.00 0.16 0.00 75 1014.6
20260904181134 92 49 1.7 5.2 0.00 0.16 0.00 74 1014.9
20260904180551 91 26 1.7 5.2 0.00 0.16 0.00 77 1014.9
20260904180048 90 81 1.7 5.2 0.00 0.16 0.00 78 1014.9
20260904175545 90 42 0.9 4.3 0.00 0.16 0.00 76 1014.9
20260904175041 90 23 1.7 4.3 0.00 0.16 0.00 76 1015.2
20260904174519 91 62 1.7 5.2 0.00 0.16 0.00 75 1015.2
20260904174001 92 67 1.7 5.2 0.00 0.16 0.00 74 1015.2
20260904173458 92 43 1.7 4.3 0.00 0.16 0.00 75 1015.2
20260904172955 92 25 1.7 3.5 0.00 0.16 0.00 75 1014.9
20260904172420 93 59 0.9 3.5 0.00 0.16 0.00 76 1014.9
20260904171858 93 29 1.7 3.5 0.00 0.16 0.00 76 1015.2
20260904171253 92 259 0.9 4.3 0.00 0.16 0.00 81 1015.2
20260904170735 91 249 0.9 4.3 0.00 0.16 0.00 79 1015.2
20260904170232 90 247 1.7 4.3 0.00 0.16 0.00 83 1015.2
20260904165729 89 252 1.7 3.5 0.00 0.16 0.00 82 1015.2
20260904165155 88 16 0.9 1.7 0.00 0.16 0.00 84 1015.2
20260904164652 87 16 0.9 1.7 0.00 0.16 0.00 84 1015.6
20260904164148 87 17 0.9 0.9 0.00 0.16 0.00 86 1015.6
20260904163646 86 17 0.0 0.9 0.00 0.16 0.00 86 1015.6
20260904163142 86 17 0.0 1.7 0.00 0.16 0.00 86 1015.6
20260904162639 86 17 0.0 2.6 0.00 0.16 0.00 86 1015.6
20260904162136 85 17 0.0 2.6 0.00 0.16 0.00 86 1015.6
20260904161633 84 17 0.0 2.6 0.00 0.16 0.00 86 1015.6
20260904161111 84 48 0.9 2.6 0.00 0.16 0.00 86 1015.6
20260904160608 83 275 0.9 0.9 0.00 0.16 0.00 89 1015.2
20260904160046 83 327 0.9 0.9 0.00 0.16 0.00 89 1015.2
20260904155511 83 327 0.0 1.7 0.00 0.16 0.00 88 1015.2
20260904155007 83 39 0.9 2.6 0.00 0.16 0.00 89 1015.2
20260904154501 83 35 0.9 2.6 0.00 0.16 0.00 89 1015.2
20260904153955 83 14 0.9 2.6 0.00 0.16 0.00 89 1015.6
20260904153420 83 208 0.0 0.9 0.00 0.16 0.00 90 1015.6
20260904152918 83 208 0.0 0.9 0.00 0.16 0.00 90 1015.2
20260904152415 83 30 0.9 1.7 0.00 0.16 0.00 91 1015.2
20260904151853 83 53 0.9 1.7 0.00 0.16 0.00 91 1015.2
20260904151318 83 56 0.0 1.7 0.00 0.16 0.00 91 1014.9
20260904150711 83 34 0.0 1.7 0.00 0.16 0.00 91 1014.6
20260904150149 83 33 0.0 2.6 0.00 0.16 0.00 91 1014.9
20260904145646 82 33 0.9 4.3 0.00 0.16 0.00 91 1014.9
20260904145143 82 33 0.9 4.3 0.00 0.16 0.00 91 1014.9
20260904144640 82 17 1.7 4.3 0.00 0.16 0.00 92 1014.9
20260904144137 82 54 1.7 4.3 0.00 0.16 0.00 92 1014.9
20260904143615 82 86 0.9 4.3 0.00 0.16 0.00 92 1014.9
20260904142938 82 66 1.7 4.3 0.00 0.16 0.00 93 1014.9
20260904142432 82 54 0.9 4.3 0.00 0.16 0.00 94 1014.6
20260904141859 81 17 0.0 0.9 0.00 0.16 0.00 94 1014.6
20260904141216 81 17 0.0 0.9 0.00 0.16 0.00 94 1014.6
20260904140712 81 17 0.0 0.9 0.00 0.16 0.00 94 1014.6
20260904140209 80 17 0.9 0.9 0.00 0.16 0.00 94 1014.6
20260904135647 80 17 0.0 0.0 0.00 0.16 0.00 94 1014.6
20260904135144 80 17 0.0 0.0 0.00 0.16 0.00 94 1014.6
20260904134642 80 17 0.0 0.0 0.00 0.16 0.00 94 1014.6
20260904134138 80 17 0.0 0.0 0.00 0.16 0.00 94 1014.2
20260904133532 80 17 0.0 0.0 0.00 0.16 0.00 94 1014.2
20260904133029 79 17 0.0 0.0 0.00 0.16 0.00 94 1014.6
20260904132526 79 17 0.0 0.0 0.00 0.16 0.00 94 1014.2
20260904132024 79 17 0.0 0.0 0.00 0.16 0.00 94 1014.2
20260904131501 80 17 0.0 0.0 0.00 0.16 0.00 94 1014.2
20260904130959 80 17 0.0 0.0 0.00 0.16 0.00 94 1014.2
20260904130456 80 17 0.0 0.0 0.00 0.16 0.00 95 1014.2
20260904125916 80 17 0.0 0.0 0.00 0.16 0.00 95 1014.2
20260904125413 80 12 0.0 0.0 0.00 0.16 0.00 95 1014.2
20260904124910 80 12 0.0 0.0 0.00 0.16 0.00 95 1014.2
20260904124407 80 12 0.0 0.0 0.00 0.16 0.00 95 1013.9
20260904123903 80 12 0.0 0.0 0.00 0.16 0.00 95 1013.9
20260904123400 80 12 0.0 0.0 0.00 0.16 0.00 95 1013.9
20260904122752 80 12 0.0 0.0 0.00 0.16 0.00 95 1013.5
20260904122249 80 12 0.0 0.0 0.00 0.16 0.00 95 1013.5
20260904121745 80 12 0.0 0.0 0.00 0.16 0.00 95 1013.5
20260904121208 80 12 0.0 0.0 0.00 0.16 0.00 95 1013.5
20260904120705 80 12 0.0 0.0 0.00 0.16 0.00 95 1013.5
20260904120140 80 12 0.0 0.0 0.00 0.16 0.00 94 1013.5
20260904115615 80 12 0.0 0.0 0.00 0.16 0.00 95 1013.2
20260904115111 80 12 0.0 0.0 0.00 0.16 0.00 95 1013.5
20260904114537 80 12 0.0 0.0 0.00 0.16 0.00 95 1013.5
20260904114034 80 12 0.0 0.0 0.00 0.16 0.00 95 1013.5
20260904113531 80 12 0.0 0.0 0.00 0.16 0.00 94 1013.2
20260904113028 80 12 0.0 0.0 0.00 0.16 0.00 95 1013.5
20260904112524 80 12 0.0 0.0 0.00 0.16 0.00 94 1013.5
20260904112022 80 12 0.0 0.0 0.00 0.16 0.00 94 1013.2
20260904111519 80 12 0.0 0.0 0.00 0.16 0.00 95 1013.5
20260904110944 80 12 0.0 0.0 0.00 0.16 0.00 94 1013.5
20260904110441 80 12 0.0 0.0 0.00 0.16 0.00 94 1013.5
20260904105900 80 12 0.0 0.0 0.00 0.16 0.00 94 1013.5
20260904105358 80 12 0.0 0.0 0.00 0.16 0.00 94 1013.5
20260904104855 80 12 0.0 0.0 0.00 0.16 0.00 94 1013.5
20260904104351 80 12 0.0 0.0 0.00 0.16 0.00 94 1013.5
20260904103817 80 12 0.0 0.0 0.00 0.16 0.00 94 1013.5
20260904103313 80 12 0.0 0.0 0.00 0.16 0.00 94 1013.2
20260904102810 80 12 0.0 0.0 0.00 0.16 0.00 94 1013.2
20260904102307 80 12 0.0 0.0 0.00 0.16 0.00 94 1013.2
20260904101732 80 12 0.0 0.0 0.00 0.16 0.00 94 1013.2
20260904101229 80 12 0.0 0.0 0.00 0.16 0.00 94 1013.2
20260904100726 80 12 0.0 0.0 0.00 0.16 0.00 94 1013.2
20260904100121 80 12 0.0 0.0 0.00 0.16 0.00 94 1012.9
20260904095616 80 12 0.0 0.0 0.00 0.16 0.00 94 1012.9
20260904095037 80 12 0.0 0.0 0.00 0.16 0.00 94 1012.9
20260904094534 80 12 0.0 0.0 0.00 0.16 0.00 94 1012.9
20260904094000 80 13 0.0 0.0 0.00 0.16 0.00 94 1012.9
20260904093426 80 13 0.0 0.0 0.00 0.16 0.00 94 1012.9
20260904092904 80 12 0.0 0.0 0.00 0.16 0.00 94 1012.9
20260904092401 80 12 0.0 0.0 0.00 0.16 0.00 94 1012.9
20260904091857 80 12 0.0 0.0 0.00 0.16 0.00 94 1012.9
20260904091323 80 12 0.0 0.0 0.00 0.16 0.00 94 1012.9
20260904090658 80 12 0.0 0.0 0.00 0.16 0.00 94 1012.9
20260904090155 80 12 0.0 0.0 0.00 0.16 0.00 94 1012.9
20260904085652 80 12 0.0 0.0 0.00 0.16 0.00 94 1012.9
20260904085149 80 12 0.0 0.0 0.00 0.16 0.00 94 1012.9
20260904084647 80 12 0.0 0.0 0.00 0.16 0.00 94 1012.5
20260904084143 80 12 0.0 0.0 0.00 0.16 0.00 94 1012.5
20260904083640 80 12 0.0 0.0 0.00 0.16 0.00 94 1012.9
20260904083106 80 12 0.0 0.0 0.00 0.16 0.00 94 1012.9
20260904082602 80 12 0.0 0.0 0.00 0.16 0.00 94 1012.9
20260904082041 80 12 0.0 0.0 0.00 0.16 0.00 94 1012.9
20260904081538 80 12 0.0 0.0 0.00 0.16 0.00 94 1012.9
20260904081035 80 13 0.0 0.0 0.00 0.16 0.00 94 1012.9
20260904080532 80 12 0.0 0.0 0.00 0.16 0.00 94 1012.9
20260904075936 80 13 0.0 0.0 0.00 0.16 0.00 94 1012.9
20260904075423 80 12 0.0 0.0 0.00 0.16 0.00 94 1012.9
20260904074906 80 12 0.0 0.0 0.00 0.16 0.00 94 1012.9
20260904074403 80 12 0.0 0.0 0.00 0.16 0.00 94 1012.9
20260904073859 80 12 0.0 0.0 0.00 0.16 0.00 94 1012.9
20260904073325 80 12 0.0 0.0 0.00 0.16 0.00 94 1012.9
20260904072804 80 12 0.0 0.0 0.00 0.16 0.00 94 1012.9
20260904072300 80 13 0.0 0.0 0.00 0.16 0.00 94 1012.9
20260904071757 80 12 0.0 0.0 0.00 0.16 0.00 94 1012.9
20260904071254 80 12 0.0 0.0 0.00 0.16 0.00 94 1012.9
20260904070719 80 12 0.0 0.0 0.00 0.16 0.00 94 1013.2
20260904070217 80 12 0.0 0.0 0.00 0.16 0.00 94 1013.2
20260904065655 80 12 0.0 0.0 0.00 0.16 0.00 94 1012.9
20260904065152 80 12 0.0 0.0 0.00 0.16 0.00 94 1013.2
20260904064649 80 12 0.0 0.0 0.00 0.16 0.00 94 1013.2
20260904064115 80 12 0.0 0.0 0.00 0.16 0.00 94 1013.2
20260904063612 80 12 0.0 0.0 0.00 0.16 0.00 94 1013.2
20260904063037 80 13 0.0 0.0 0.00 0.16 0.00 94 1012.9
20260904062533 80 12 0.0 0.0 0.00 0.16 0.00 94 1012.9
20260904062030 80 12 0.0 0.0 0.00 0.16 0.00 94 1013.2
20260904061456 80 13 0.0 0.0 0.00 0.16 0.00 94 1013.2
20260904060953 81 12 0.0 0.0 0.00 0.16 0.00 94 1013.2
20260904060449 81 12 0.0 0.0 0.00 0.16 0.00 94 1013.2
20260904055946 81 12 0.0 0.0 0.00 0.16 0.00 94 1013.2
20260904055442 81 13 0.0 0.0 0.00 0.16 0.00 94 1013.2
20260904054920 81 12 0.0 0.0 0.00 0.16 0.00 94 1013.2
20260904054417 81 12 0.0 0.0 0.00 0.16 0.00 94 1013.2
20260904053842 81 12 0.0 0.0 0.00 0.16 0.00 94 1013.2
20260904053339 81 12 0.0 0.0 0.00 0.16 0.00 94 1013.2
20260904052837 81 13 0.0 0.0 0.00 0.16 0.00 94 1013.2
20260904052334 81 12 0.0 0.0 0.00 0.16 0.00 94 1013.2
20260904051831 81 13 0.0 0.0 0.00 0.16 0.16 94 1013.2
20260904051328 81 13 0.0 0.0 0.00 0.16 0.16 94 1013.2
20260904050825 81 12 0.0 0.0 0.00 0.16 0.16 94 1013.2
20260904050322 81 12 0.0 0.0 0.00 0.16 0.16 94 1013.2
20260904045819 81 13 0.0 0.0 0.00 0.16 0.16 94 1013.2
20260904045245 81 12 0.0 0.0 0.00 0.16 0.16 94 1013.2
20260904044741 81 12 0.0 0.0 0.00 0.16 0.16 94 1013.2
20260904044238 81 12 0.0 0.0 0.00 0.16 0.16 94 1013.2
20260904043735 81 12 0.0 0.0 0.00 0.16 0.16 94 1013.2
20260904043231 81 13 0.0 0.0 0.00 0.16 0.16 94 1013.2
20260904042727 81 12 0.0 0.0 0.00 0.16 0.16 94 1013.2
20260904042224 81 12 0.0 0.0 0.00 0.16 0.16 94 1013.2
20260904041717 81 13 0.0 0.0 0.00 0.16 0.16 94 1013.2
20260904041210 81 12 0.0 0.0 0.00 0.16 0.16 94 1013.2
20260904040657 81 12 0.0 0.0 0.00 0.16 0.16 94 1013.2
20260904040143 81 12 0.0 0.0 0.00 0.16 0.16 94 1013.2
20260904035540 81 12 0.0 0.0 0.00 0.16 0.16 94 1013.2
20260904035037 81 12 0.0 0.0 0.00 0.16 0.16 94 1013.2
20260904034533 81 12 0.0 0.0 0.00 0.16 0.16 94 1013.2
20260904033928 81 12 0.0 0.0 0.00 0.16 0.16 94 1013.5
20260904033425 81 12 0.0 0.0 0.00 0.16 0.16 94 1013.5
20260904032922 81 12 0.0 0.0 0.00 0.16 0.16 94 1013.2
20260904032419 81 12 0.0 0.0 0.00 0.16 0.16 94 1013.2
20260904031917 81 12 0.0 0.0 0.00 0.16 0.16 94 1013.5
20260904031413 81 12 0.0 0.0 0.00 0.16 0.16 94 1013.5
20260904030910 81 12 0.0 0.0 0.00 0.16 0.16 94 1013.5
20260904030407 81 12 0.0 0.0 0.00 0.16 0.16 93 1013.5